Total_Precipitation_Accumulation
1.68 1.60 1.21 0.73 0.56 0.50 0.53 0.51 0.43 0.45 0.42 0.46 0.45 0.43 0.42 0.44 0.52 0.54 0.54 0.60 0.72 0.91 1.11 1.24 1.54 1.76 1.91 2.11 2.35 2.54 2.60 2.72 2.81 2.88 2.82 2.64 2.51 2.36 2.20 1.99 1.80 1.71 1.57 1.55
1.61 1.20 0.66 0.47 0.53 0.57 0.59 0.61 0.47 0.44 0.44 0.52 0.52 0.46 0.41 0.48 0.56 0.54 0.53 0.55 0.62 0.79 0.98 1.16 1.37 1.54 1.74 1.94 2.07 2.38 2.53 2.54 2.57 2.56 2.65 2.66 2.77 2.66 2.49 2.33 2.04 1.87 1.74 1.62
1.25 0.78 0.58 0.63 0.70 0.73 0.62 0.54 0.48 0.51 0.54 0.59 0.59 0.56 0.48 0.53 0.50 0.53 0.57 0.59 0.64 0.69 0.84 1.02 1.27 1.42 1.56 1.79 1.91 2.06 2.29 2.39 2.48 2.56 2.83 2.90 2.89 2.75 2.50 2.25 2.03 1.87 1.79 1.71
1.09 0.67 0.70 0.79 0.75 0.70 0.65 0.39 0.44 0.58 0.75 0.82 0.69 0.82 0.62 0.55 0.48 0.51 0.57 0.59 0.65 0.69 0.81 0.94 1.08 1.29 1.45 1.58 1.74 1.87 2.06 2.23 2.38 2.52 2.68 2.70 2.55 2.39 2.25 2.17 2.10 1.97 1.83 1.76
1.13 0.75 0.81 0.89 0.67 0.63 0.59 0.37 0.45 0.64 0.82 0.85 0.59 0.68 0.62 0.44 0.44 0.48 0.51 0.53 0.56 0.65 0.72 0.78 0.89 1.08 1.24 1.37 1.54 1.72 1.85 1.98 2.19 2.38 2.37 2.53 2.47 2.27 2.21 2.18 2.12 2.00 1.86 1.77
0.86 0.75 0.90 0.84 0.58 0.62 0.62 0.64 0.73 0.83 1.17 1.19 0.51 0.52 0.59 0.46 0.45 0.46 0.47 0.50 0.51 0.57 0.65 0.70 0.75 0.90 1.06 1.17 1.27 1.50 1.71 1.80 1.94 2.20 2.19 2.14 2.12 2.05 2.04 2.05 2.02 2.00 1.86 1.73
1.26 1.02 0.88 0.83 0.86 0.89 0.95 1.31 1.71 1.69 1.61 0.96 0.34 0.39 0.50 0.38 0.39 0.45 0.43 0.42 0.43 0.45 0.53 0.58 0.56 0.68 0.90 1.04 1.11 1.24 1.49 1.63 1.71 1.87 2.00 2.04 2.01 1.95 1.91 1.86 1.90 1.95 1.88 1.63
1.33 1.24 0.87 0.89 1.01 1.10 1.00 1.16 1.35 1.16 0.77 0.43 0.29 0.37 0.38 0.28 0.29 0.32 0.33 0.32 0.36 0.41 0.44 0.48 0.50 0.59 0.75 0.90 1.00 1.05 1.19 1.39 1.52 1.57 1.69 1.86 1.91 1.85 1.82 1.76 1.78 1.86 1.86 1.75
0.97 0.98 0.62 0.64 0.67 0.77 0.99 0.99 0.80 1.02 0.70 0.48 0.38 0.36 0.32 0.22 0.23 0.25 0.27 0.27 0.31 0.37 0.40 0.45 0.48 0.54 0.61 0.72 0.85 0.90 0.95 1.14 1.28 1.35 1.47 1.60 1.61 1.57 1.54 1.53 1.55 1.61 1.68 1.66
0.89 1.00 0.64 0.63 0.83 0.83 0.86 0.84 1.02 1.49 1.18 0.69 0.39 0.33 0.39 0.28 0.25 0.25 0.25 0.28 0.31 0.34 0.35 0.40 0.46 0.51 0.53 0.60 0.68 0.75 0.84 0.97 1.11 1.18 1.27 1.30 1.32 1.36 1.32 1.28 1.30 1.34 1.38 1.40
0.81 1.09 0.86 0.85 1.05 0.86 0.84 0.99 1.16 1.21 0.97 0.85 0.53 0.41 0.37 0.32 0.28 0.27 0.27 0.29 0.31 0.32 0.33 0.37 0.42 0.48 0.54 0.61 0.66 0.69 0.74 0.82 0.96 1.04 1.04 1.00 1.00 1.12 1.16 1.16 1.13 1.13 1.20 1.28
0.72 1.11 0.92 0.68 0.61 0.53 0.69 0.79 0.96 1.30 0.96 0.68 0.59 0.45 0.29 0.26 0.29 0.29 0.29 0.31 0.29 0.27 0.30 0.34 0.38 0.45 0.50 0.57 0.64 0.70 0.70 0.74 0.83 0.90 0.93 0.90 0.86 0.93 0.98 0.93 0.92 0.96 0.99 1.06
0.90 1.35 1.25 0.91 0.85 0.78 0.81 0.67 0.75 1.08 1.30 0.98 0.78 0.48 0.26 0.21 0.25 0.29 0.31 0.31 0.27 0.26 0.27 0.28 0.32 0.40 0.46 0.52 0.58 0.62 0.64 0.67 0.74 0.77 0.83 0.89 0.88 0.92 0.98 0.91 0.80 0.81 0.82 0.84
1.17 1.36 1.17 1.02 0.85 0.83 0.80 0.61 0.69 1.33 1.65 0.93 0.54 0.41 0.31 0.27 0.29 0.32 0.35 0.34 0.30 0.28 0.30 0.30 0.33 0.38 0.43 0.48 0.53 0.55 0.59 0.62 0.66 0.67 0.73 0.79 0.83 0.86 0.96 0.95 0.82 0.78 0.76 0.76
1.04 1.25 0.81 0.57 0.46 0.59 0.64 0.59 0.67 1.02 0.99 0.88 0.50 0.41 0.43 0.40 0.41 0.40 0.37 0.33 0.29 0.27 0.30 0.32 0.35 0.39 0.40 0.41 0.44 0.46 0.49 0.52 0.57 0.59 0.62 0.71 0.75 0.77 0.87 0.92 0.91 0.90 0.87 0.81
0.77 1.05 0.82 0.60 0.41 0.49 0.56 0.54 0.59 0.66 0.62 0.61 0.50 0.51 0.41 0.38 0.35 0.37 0.37 0.34 0.34 0.30 0.30 0.31 0.34 0.36 0.36 0.39 0.43 0.45 0.46 0.49 0.53 0.57 0.58 0.61 0.64 0.67 0.74 0.82 0.82 0.87 0.93 0.93
0.58 0.83 1.04 0.78 0.46 0.61 0.79 0.68 0.65 0.61 0.52 0.50 0.57 0.50 0.35 0.35 0.37 0.39 0.35 0.32 0.32 0.31 0.28 0.29 0.31 0.34 0.36 0.36 0.38 0.41 0.45 0.50 0.54 0.58 0.59 0.60 0.61 0.61 0.63 0.67 0.76 0.85 0.93 0.98
0.43 0.67 1.08 0.87 0.67 0.92 0.76 0.54 0.51 0.51 0.50 0.45 0.44 0.36 0.33 0.36 0.38 0.39 0.34 0.29 0.25 0.24 0.23 0.23 0.26 0.29 0.34 0.34 0.34 0.35 0.35 0.40 0.46 0.50 0.51 0.54 0.60 0.64 0.65 0.71 0.84 0.96 1.03 1.10
0.25 0.61 1.09 0.97 0.74 0.52 0.34 0.28 0.38 0.46 0.49 0.39 0.34 0.29 0.26 0.28 0.32 0.37 0.34 0.29 0.26 0.22 0.21 0.20 0.21 0.23 0.27 0.30 0.30 0.31 0.33 0.37 0.40 0.46 0.48 0.49 0.56 0.68 0.80 0.90 1.02 1.11 1.20 1.25
0.25 0.52 1.07 0.99 0.86 0.54 0.32 0.16 0.19 0.34 0.53 0.31 0.27 0.29 0.27 0.26 0.35 0.35 0.30 0.27 0.24 0.21 0.20 0.19 0.19 0.19 0.22 0.25 0.27 0.29 0.33 0.40 0.47 0.53 0.59 0.63 0.68 0.81 0.94 1.01 1.08 1.09 1.11 1.13
0.47 0.70 0.93 0.83 0.81 0.48 0.27 0.14 0.15 0.48 0.61 0.27 0.23 0.27 0.30 0.35 0.40 0.32 0.25 0.26 0.24 0.22 0.22 0.23 0.25 0.28 0.28 0.29 0.34 0.41 0.45 0.55 0.62 0.66 0.73 0.79 0.78 0.79 0.81 0.84 0.83 0.77 0.73 0.72
0.44 0.57 0.59 0.61 0.83 0.62 0.28 0.21 0.42 0.58 0.36 0.27 0.24 0.25 0.28 0.31 0.28 0.27 0.26 0.25 0.25 0.23 0.21 0.23 0.31 0.39 0.41 0.43 0.51 0.59 0.63 0.67 0.69 0.72 0.74 0.75 0.75 0.73 0.70 0.65 0.59 0.50 0.44 0.42
0.43 0.56 0.61 0.62 0.69 0.57 0.38 0.40 0.42 0.35 0.33 0.29 0.29 0.28 0.27 0.28 0.28 0.27 0.28 0.25 0.22 0.20 0.20 0.22 0.27 0.31 0.36 0.40 0.45 0.52 0.54 0.54 0.56 0.59 0.62 0.62 0.61 0.57 0.53 0.49 0.46 0.42 0.37 0.36
0.39 0.32 0.42 0.48 0.46 0.37 0.31 0.26 0.25 0.27 0.31 0.31 0.29 0.28 0.25 0.26 0.25 0.24 0.23 0.24 0.24 0.23 0.21 0.21 0.21 0.21 0.23 0.24 0.29 0.33 0.32 0.33 0.34 0.38 0.42 0.45 0.46 0.45 0.41 0.37 0.37 0.38 0.37 0.35
0.39 0.35 0.40 0.45 0.37 0.28 0.26 0.25 0.25 0.23 0.22 0.23 0.23 0.25 0.26 0.25 0.25 0.24 0.23 0.23 0.24 0.25 0.25 0.25 0.24 0.24 0.24 0.23 0.23 0.25 0.25 0.26 0.27 0.28 0.30 0.32 0.34 0.36 0.36 0.35 0.34 0.35 0.36 0.37
0.37 0.44 0.53 0.52 0.36 0.37 0.33 0.25 0.22 0.21 0.21 0.20 0.19 0.21 0.22 0.22 0.25 0.24 0.25 0.25 0.25 0.26 0.25 0.24 0.24 0.25 0.26 0.25 0.23 0.23 0.23 0.24 0.27 0.28 0.28 0.28 0.29 0.32 0.34 0.34 0.35 0.38 0.38 0.40